Weather in Nowra

Australia     34°53′16″S   150°36′16″E
temp.,
°C
wind,
m/s
gust,
m/s
humid.,
%
clouds,
%
prec.,
mm/h
press.,
hPa
HPBL,
m
6 may, thu
thu601:00+16s2699100 3.6 1015264
04:00+16se41097100 6.9 1015961
07:00+16sse41198100 4.6 10161032
10:00+17se51298100 12.9 1015990
13:00+17se41099100 13.8 1014959
16:00+17se4109689 17.8 1015846
19:00+16sse3109650 2.5 1015608
22:00+16se31098100 5.9 1014752
7 may, fri
fri701:00+16s399887 2.9 1013594
04:00+16s3109896 4.9 1012714
07:00+16sw31098100 2.1 1012679
10:00+15sw21098100 3.6 1012578
13:00+18ssw388495 0.1 1010793
16:00+19s27796 0.3 1009707
19:00+14w11985 0.0 101114
22:00+13wnw11982 0.0 101118
8 may, sat
sat801:00+13wnw229660 0.0 101041
04:00+12wnw23955 0.0 101171
07:00+13wnw2484100 0.0 1012107
10:00+20wnw21051100 0.0 1013612
13:00+22w384470 0.0 10121007
16:00+20w28555 0.0 1013520
19:00+14wnw28749 0.0 1016160
22:00+14wnw21173100 0.0 1017246
9 may, sun
sun901:00+13wnw2475100 0.0 101797
04:00+12wnw1178100 0.0 101816
07:00+12w1176100 0.0 102037
10:00+17wnw1265100 0.0 1021246
13:00+18n1170100 0.0 1018308
16:00+18e0175100 0.0 101729
19:00+14nw1189100 0.0 101813
22:00+13nw1186100 0.0 101727
10 may, mon
mon1001:00+12nw238899 0.0 101649
04:00+11nw22928 0.0 101341
07:00+11nw239081 0.0 101364
10:00+19nw385830 0.0 1011758
13:00+22wnw412519 0.0 10081657
16:00+19nw41361100 0.0 10071550
19:00+16wnw41468100 0.1 10101301
22:00+14w312657 0.1 10121545